Voltar ao catálogo

STARLINK-5768

AtivoComunicaçõesVLEO
NORAD 57145·PAYLOAD·🇺🇸 United States

Lançado Jun 23, 2023 de Cape Canaveral Space Force Station

Loading…

Próximas Passagens (próximas 24 horas)

TLE

AtualizadoSource: CelesTrak SupGP

Época: Sep 14, 2026, 14:12 UTC

1 57145C 23090AW  26257.59215278  .00008405  00000+0  30435-3 0  2578
2 57145  42.9995 276.6625 0001556 270.3727  25.3906 15.27581554    10

Acompanhe STARLINK-5768 em tempo real com AllMySat

Download on the App Store